ONEWEB-0251 (48969 NORAD) Tracking and Keplerian Element Data

This shows tracking and keplerian element data for the satellite.

Feedback or suggestion? Click here.




ElementValue
Catalog48969
NameONEWEB-0251
Epoch Orbit1457
Epoch Day269.25001157
Epoch Year2021
RAAN206.9533
Inclination87.4244
Eccentricity0.0008594
Argument of Perigee333.6475
Mean Anonmoly71.4841
Mean Motion15.33011049
Decay Rate0.00062788
L11 48969U 21060C 21269.25001157 .00062788 00000-0 19545-2 0 9993
L22 48969 87.4244 206.9533 0008594 333.6475 71.4841 15.33011049 14571

Live tracking and technical data element details for ONEWEB-0251 (NORAD 48969). ONEWEB-0251 can be tracked NOW for your location showing map with azimuth and elevation plus other details from your city location.

Track the satellite on the map from your city or location and see movement details for azimuth, elevation, latitude, longitude, range, height, and movement on the map or in text.







IsCatalogInMostPopularTable: catalog: 48969, numindb: 18
Update: records affected: 1



GetName: 48969 ONEWEB-0251

Hit Count: updated at: Sun, 26 Sep 2021 14:54:31 GMT